Location: Unspecified
(60.3052°N, 5.3304°E)
Time: 06:40:04
(UTC+02:00)

ISS - Visible Passes

Search period start: 15 September 2024 00:00
Search period end: 25 September 2024 00:00
Orbit: 414 x 424 km, 51.6° (Epoch: 15 September)

Date Brightness Start Highest point End Pass type
(mag) Time Alt. Az. Time Alt. Az. Time Alt. Az.
15 Sep -1.8 21:30:35 10° SSW 21:32:32 15° SSE 21:32:48 14° SSE visible
16 Sep -1.5 20:43:50 10° S 20:45:18 12° SSE 20:46:45 10° SE visible
16 Sep -1.7 22:18:46 10° SW 22:20:12 17° SSW 22:20:12 17° SSW visible
17 Sep -2.0 21:31:36 10° SW 21:33:59 18° S 21:34:36 17° SSE visible
18 Sep -1.8 20:44:34 10° SSW 20:46:47 17° SSE 20:49:00 10° SE visible
18 Sep -1.7 22:20:23 10° SW 22:21:57 17° SSW 22:21:57 17° SSW visible
19 Sep -2.0 21:33:10 10° SW 21:35:38 19° S 21:36:21 18° SSE visible
20 Sep -1.9 20:46:03 10° SW 20:48:30 19° S 20:50:46 11° SE visible
20 Sep -1.4 22:22:25 10° SW 22:23:44 15° SSW 22:23:44 15° SSW visible
21 Sep -1.8 21:35:08 10° SW 21:37:26 17° SSW 21:38:11 16° S visible
22 Sep -1.8 20:47:58 10° SW 20:50:23 18° S 20:52:41 11° SE visible
22 Sep -1.0 22:25:20 10° SW 22:25:39 10° SW 22:25:39 10° SW visible
23 Sep -1.4 21:37:39 10° SW 21:39:21 13° SSW 21:40:11 12° S visible
24 Sep -1.4 20:50:21 10° SW 20:52:24 15° SSW 20:54:28 10° SSE visible
